Weather History for Granada, Spain

Change the Weather History Date:

Wednesday, February 19, 2014

  Actual Average Record
Temperature  
Mean Temperature 47 °F -  
Max Temperature 62 °F 62 °F 75 °F (2000)
Min Temperature 32 °F 36 °F 19 °F (2005)
Degree Days  
Heating Degree Days 18    
Moisture  
Dew Point 37 °F    
Average Humidity 74    
Maximum Humidity 100    
Minimum Humidity 32    
Precipitation  
Precipitation 0.00 in - - ()
Sea Level Pressure  
Sea Level Pressure 30.17 in    
Wind  
Wind Speed 3 mph ()    
Max Wind Speed 15 mph    
Max Gust Speed -    
Visibility 7.8 miles    
Events Fog    
Averages and records for this station are not official NWS values.
T = Trace of Precipitation, MM = Missing Value Source: Averaged Metar Reports

Daily Weather History Graph

Daily Weather History Graph

Search for Another Location

Airport:

Trip Planner

Search our weather history database for the weather conditions in past years. The results will help you decide how hot, cold, wet, or windy it might be!

Date:

Astronomy

Feb. 19, 2014 Rise Set
Actual Time 7:59 AM CET 6:58 PM CET
Civil Twilight 7:33 AM CET 7:25 PM CET
Nautical Twilight 7:02 AM CET 7:55 PM CET
Astronomical Twilight 6:32 AM CET 8:26 PM CET
Moon 11:30 PM CET (2/19) 10:03 AM CET (2/19)
Length of Visible Light 11h 52m
Length of Day
10h 59m
Waning Gibbous, 82% of the Moon is Illuminated
Feb 19
Waning Gibbous
Feb 22
Last Quarter
Mar 1
New
Mar 8
First Quarter
Mar 16
Full

Hourly Weather History & Observations

Time (CET) Temp. Windchill Dew Point Humidity Pressure Visibility Wind Dir Wind Speed Gust Speed Precip Events Conditions
12:00 AM 39 °F - 38 °F 92% 30.14 in 17 mi WNW 2.3 mph - -  
1:00 AM 39 °F - 38 °F 96% 30.14 in 14 mi Calm Calm - -   Clear
2:00 AM 37 °F - 36 °F 97% 30.15 in 7 mi WSW 3.5 mph - -   Clear
3:00 AM 36 °F - 36 °F 98% 30.17 in 6 mi Calm Calm - -  
4:00 AM 37 °F - 36 °F 95% 30.17 in 4 mi Calm Calm - -   Mist
5:00 AM 35 °F - 34 °F 96% 30.17 in 3 mi Calm Calm - -   Mist
6:00 AM 35 °F - 35 °F 97% 30.18 in 6 mi South 3.5 mph - -   Mist
6:00 AM 35.6 °F 32.8 °F 35.6 °F 100% 30.09 in 5.6 mi South 3.5 mph - N/A   Partly Cloudy
6:30 AM 35.6 °F - 35.6 °F 100% 30.12 in 5.6 mi Variable 1.2 mph - N/A   Partly Cloudy
7:00 AM 34 °F - 33 °F 97% 30.21 in 3 mi South 3.5 mph - -   Mist
7:00 AM 33.8 °F - 33.8 °F 100% 30.12 in 4.3 mi Variable 2.3 mph - N/A   Partly Cloudy
7:30 AM 33.8 °F - 33.8 °F 100% 30.12 in 4.3 mi Calm Calm - N/A   Partly Cloudy
8:00 AM 33 °F - 32 °F 96% 30.23 in 2 mi Calm Calm - -   Mist
8:00 AM 32.0 °F - 32.0 °F 100% 30.12 in 3.1 mi Calm Calm - N/A   Partly Cloudy
8:30 AM 32.0 °F - 32.0 °F 100% 30.15 in 3.1 mi Variable 1.2 mph - N/A Fog Patches of Fog
8:37 AM 32.0 °F - 32.0 °F 100% 30.15 in 0.3 mi Variable 1.2 mph - N/A Fog Patches of Fog
9:00 AM 33.8 °F - 33.8 °F 100% 30.15 in 0.2 mi Variable 1.2 mph - N/A Fog Fog
9:30 AM 35.6 °F - 35.6 °F 100% 30.18 in 0.2 mi Calm Calm - N/A Fog Fog
10:00 AM 38 °F - 37 °F 97% 30.25 in 0 mi West 2.3 mph - - Fog Partial Fog
10:00 AM 35.6 °F - 35.6 °F 100% 30.18 in 0.2 mi Variable 1.2 mph - N/A Fog Fog
10:06 AM 37.4 °F - 37.4 °F 100% 30.18 in 0.4 mi Variable 2.3 mph - N/A Fog Fog
10:13 AM 37.4 °F - 37.4 °F 100% 30.18 in 0.6 mi Variable 1.2 mph - N/A Fog Fog
10:30 AM 39.2 °F - 39.2 °F 100% 30.18 in 1.2 mi Calm Calm - N/A Fog Patches of Fog
10:41 AM 41.0 °F - 41.0 °F 100% 30.18 in 2.5 mi Variable 1.2 mph - N/A   Partly Cloudy
11:00 AM 46 °F - 41 °F 77% 30.22 in 6 mi NNW 2.3 mph - - Fog Fog
11:00 AM 42.8 °F - 41.0 °F 93% 30.18 in 3.7 mi Variable 1.2 mph - N/A   Partly Cloudy
11:30 AM 44.6 °F - 42.8 °F 93% 30.18 in 6.2 mi Variable 2.3 mph - N/A   Partly Cloudy
12:00 PM 51 °F - 42 °F 61% 30.19 in 16 mi WNW 5.8 mph - -   Clear
12:00 PM 48.2 °F - 42.8 °F 82% 30.18 in 6.2 mi WNW 5.8 mph - N/A   Partly Cloudy
12:30 PM 51.8 °F - 41.0 °F 67% 30.15 in 6.2 mi WNW 4.6 mph - N/A   Partly Cloudy
1:00 PM 57 °F - 42 °F 47% 30.15 in 16 mi NW 4.6 mph - -   Partly Cloudy
1:00 PM 53.6 °F - 42.8 °F 67% 30.15 in 6.2 mi NW 4.6 mph - N/A   Partly Cloudy
1:30 PM 55.4 °F - 39.2 °F 54% 30.15 in 6.2 mi West 4.6 mph - N/A   Partly Cloudy
2:00 PM 60 °F - 39 °F 34% 30.12 in 19 mi West 3.5 mph - -   Partly Cloudy
2:00 PM 57.2 °F - 39.2 °F 51% 30.15 in 6.2 mi Variable 2.3 mph - N/A   Partly Cloudy
2:30 PM 57.2 °F - 41.0 °F 55% 30.12 in 6.2 mi Variable 3.5 mph - N/A   Partly Cloudy
3:00 PM 62 °F - 40 °F 32% 30.10 in 19 mi WSW 6.9 mph - -  
3:00 PM 57.2 °F - 39.2 °F 51% 30.12 in 6.2 mi WSW 5.8 mph - N/A   Partly Cloudy
3:30 PM 60.8 °F - 41.0 °F 48% 30.12 in 6.2 mi WNW 5.8 mph - N/A   Partly Cloudy
4:00 PM 60 °F - 40 °F 35% 30.10 in 19 mi NNW 4.6 mph - -   Partly Cloudy
4:00 PM 59.0 °F - 41.0 °F 51% 30.12 in 6.2 mi Variable 3.5 mph - N/A   Scattered Clouds
4:30 PM 59.0 °F - 39.2 °F 48% 30.12 in 6.2 mi NNW 9.2 mph - N/A   Partly Cloudy
5:00 PM 59 °F - 38 °F 34% 30.12 in 16 mi NW 13.8 mph - -  
5:00 PM 59.0 °F - 39.2 °F 48% 30.12 in 6.2 mi NNW 13.8 mph - N/A   Partly Cloudy
5:30 PM 57.2 °F - 37.4 °F 48% 30.12 in 6.2 mi NNW 12.7 mph - N/A   Partly Cloudy
6:00 PM 57 °F - 36 °F 34% 30.14 in 19 mi NNW 15.0 mph - -  
6:00 PM 57.2 °F - 37.4 °F 48% 30.15 in 6.2 mi NNW 13.8 mph - N/A   Partly Cloudy
6:30 PM 55.4 °F - 35.6 °F 47% 30.15 in 6.2 mi NNW 15.0 mph - N/A   Partly Cloudy
7:00 PM 52 °F - 36 °F 42% 30.18 in 19 mi North 6.9 mph - -   Scattered Clouds
7:00 PM 53.6 °F - 37.4 °F 54% 30.15 in 6.2 mi North 8.1 mph - N/A   Partly Cloudy
7:30 PM 51.8 °F - 37.4 °F 58% 30.18 in - Variable 3.5 mph - N/A   Clear
8:00 PM 50 °F - 35 °F 44% 30.22 in 19 mi NNE 2.3 mph - -  
8:00 PM 50.0 °F - 35.6 °F 58% 30.18 in - Variable 2.3 mph - N/A   Clear
8:30 PM 50.0 °F - 35.6 °F 58% 30.21 in - Variable 2.3 mph - N/A   Clear
9:00 PM 48 °F - 36 °F 52% 30.25 in 19 mi North 3.5 mph - -  
9:00 PM 48.2 °F - 35.6 °F 62% 30.21 in - Variable 2.3 mph - N/A   Clear
9:30 PM 46.4 °F 45.2 °F 37.4 °F 71% 30.24 in - NW 3.5 mph - N/A   Clear
10:00 PM 43 °F - 36 °F 70% 30.30 in 19 mi WSW 3.5 mph - -  
10:00 PM 42.8 °F 41.1 °F 37.4 °F 81% 30.24 in - WSW 3.5 mph - N/A   Clear
10:30 PM 42.8 °F - 37.4 °F 81% 30.24 in - Variable 2.3 mph - N/A   Clear
11:00 PM 40 °F - 36 °F 80% 30.32 in 17 mi SW 4.6 mph - -  
11:00 PM 41.0 °F 39.0 °F 37.4 °F 87% 30.27 in - WSW 3.5 mph - N/A   Clear